Theta_e
317 317 317 317 317 317 317 317 317 317 315 316 316 317 317 318 317 309 303 308 310 319 320 310 305 304 303 300 303 301 291 288 292 294 297 304 302 309 315 313 313 318 325 332 345
317 317 317 317 317 317 316 316 316 316 316 316 317 317 316 317 308 304 313 319 321 320 311 304 299 299 295 298 299 295 289 291 297 299 298 303 306 309 311 310 310 315 336 338 337
318 317 317 317 317 317 316 316 315 315 315 316 316 316 316 314 302 303 324 323 325 322 314 307 302 297 292 294 296 293 291 297 298 302 302 302 303 310 307 304 310 314 333 335 335
314 315 316 316 316 316 316 315 315 315 314 314 315 315 315 310 288 305 325 320 327 318 313 306 298 292 290 291 294 290 296 298 299 301 301 302 304 306 310 307 315 326 322 331 334
311 312 312 313 314 315 315 315 315 315 314 313 313 314 310 300 298 309 319 315 319 315 309 299 294 291 288 290 291 291 293 297 300 300 298 304 302 305 307 311 315 319 325 326 329
309 310 310 311 311 312 313 313 314 315 314 313 313 313 304 293 308 310 309 309 313 311 308 300 295 294 290 289 292 292 295 296 297 297 297 298 299 306 307 312 312 316 324 325 327
308 308 308 309 309 310 311 311 312 313 314 314 314 309 299 295 308 309 308 305 307 310 307 306 300 296 294 289 292 294 289 291 296 295 295 300 299 302 308 310 309 311 317 326 324
309 309 308 308 308 308 309 310 311 310 311 313 314 307 294 305 306 305 307 305 307 307 305 307 302 296 292 293 292 290 288 284 291 295 296 300 292 299 309 308 307 310 312 319 322
310 310 309 308 308 308 309 310 309 309 310 311 305 301 293 306 302 306 306 302 304 306 306 310 301 294 293 288 284 285 281 284 289 294 296 297 291 300 307 307 306 308 310 312 315
309 309 309 308 308 308 309 309 307 307 306 306 304 295 297 295 302 306 307 305 301 303 301 302 294 289 286 285 281 281 283 285 287 292 295 294 295 301 306 307 306 306 308 310 313
308 309 309 309 308 309 306 299 290 289 295 293 294 293 296 302 305 303 308 303 301 301 294 298 290 285 287 288 289 288 286 286 288 293 295 293 296 301 305 305 305 305 306 309 312
309 309 309 309 309 309 304 295 293 298 291 298 298 297 299 301 295 299 306 298 296 292 297 292 289 291 291 291 290 288 285 285 289 293 294 293 295 301 303 303 304 305 305 307 311
309 310 309 309 309 301 296 296 302 302 288 292 296 296 297 300 295 296 301 300 293 293 294 290 293 295 292 289 288 288 285 286 288 297 298 296 293 296 302 304 305 306 307 309 309
309 309 310 310 303 298 295 298 298 302 284 286 292 297 299 300 294 302 302 301 297 292 296 292 297 295 292 289 290 285 291 291 292 292 287 297 284 292 297 299 302 303 304 306 309
308 309 309 308 302 298 299 298 302 295 271 288 294 305 299 294 295 297 304 298 294 295 295 291 293 294 291 290 292 288 293 291 291 290 289 291 287 290 296 296 299 301 303 305 307
308 309 308 305 302 303 302 302 296 283 273 285 294 293 292 294 293 297 298 303 302 297 297 295 300 298 296 296 294 295 291 289 288 286 281 288 287 287 290 294 297 300 303 305 307
308 308 306 305 299 305 300 293 280 274 287 284 288 292 291 289 291 292 293 294 293 289 289 293 295 297 299 292 293 292 285 277 276 278 279 289 287 290 295 298 299 301 302 305 307
307 307 302 304 306 307 300 288 275 282 284 290 290 290 287 291 289 291 290 291 298 293 289 286 285 294 296 292 288 288 284 278 275 277 280 290 284 289 297 300 301 302 303 304 306
306 297 297 303 310 305 293 279 280 284 288 288 289 286 288 290 290 289 289 292 295 295 288 287 287 296 297 295 293 286 283 287 283 285 281 284 289 295 302 303 304 299 301 303 304
300 293 296 307 308 301 289 283 286 291 292 291 286 288 283 287 288 288 291 296 296 298 296 291 285 295 297 297 295 291 292 284 282 278 277 283 287 288 296 299 303 297 299 304 315
293 290 299 307 305 296 285 288 290 295 295 292 289 286 288 286 288 288 292 296 299 298 297 293 291 291 296 291 286 286 284 286 286 283 278 277 283 296 297 301 301 298 309 315 316
298 286 299 303 292 292 286 291 294 293 297 295 293 291 289 290 287 290 292 296 301 300 291 293 290 283 288 293 295 289 288 289 282 283 285 282 283 301 300 305 302 308 314 315 315
294 292 300 300 286 286 291 292 294 293 293 290 289 292 293 288 286 291 296 302 301 298 293 293 285 281 284 289 290 288 288 290 289 288 285 281 284 303 303 306 306 310 313 312 310
291 286 292 294 296 290 288 290 290 296 296 298 296 294 290 290 292 292 296 302 303 297 307 300 289 286 280 285 289 286 289 293 290 283 287 288 290 298 302 304 306 306 312 309 309
292 289 295 287 290 291 292 290 290 291 296 299 295 295 294 291 293 291 297 298 300 308 297 293 288 292 293 296 295 292 290 290 290 290 287 293 294 298 301 302 306 306 307 306 305
289 291 295 292 293 291 291 290 290 293 294 293 293 296 295 291 292 291 293 293 292 295 295 294 288 292 291 295 296 294 296 296 295 295 296 298 296 304 306 309 308 305 306 305 305
296 300 295 293 290 289 289 291 292 295 297 297 297 296 293 294 298 298 297 295 295 292 294 293 290 287 284 292 292 287 292 295 298 299 299 294 298 304 305 307 306 304 305 304 305
Wind_Speed
13 14 14 15 14 15 15 15 15 16 15 14 14 14 14 14 12 4 15 13 13 19 6 6 2 5 6 3 3 4 3 6 7 8 4 1 3 5 4 3 4 2 2 9 12
13 14 14 15 15 14 15 15 16 16 17 15 12 11 12 12 8 15 16 18 17 5 5 7 4 6 5 6 4 5 5 8 6 5 4 5 3 5 6 7 3 4 9 18 17
17 15 16 17 17 14 15 16 16 17 16 16 15 10 9 8 7 10 5 4 17 23 5 4 2 8 5 4 5 4 5 5 2 7 4 4 4 4 4 4 2 3 3 13 17
19 20 20 21 20 18 17 17 17 16 15 15 16 14 7 2 8 5 9 24 17 17 8 4 5 7 8 9 5 3 6 6 7 3 2 4 3 3 3 5 2 5 3 8 14
20 20 21 21 21 20 19 19 19 18 15 13 13 16 6 9 16 11 20 19 6 9 12 5 6 6 7 7 1 5 3 5 6 7 3 4 6 3 5 2 7 6 9 8 12
21 21 20 21 20 20 19 18 19 19 18 15 13 14 9 25 17 17 13 6 5 11 8 6 8 5 5 4 18 6 11 7 6 6 5 6 6 5 3 7 5 10 3 7 8
21 20 21 20 21 21 20 19 18 18 21 19 16 11 13 21 13 5 6 3 2 2 5 12 4 7 5 2 5 7 3 1 16 5 5 7 8 9 7 7 7 7 7 1 6
19 19 21 21 22 23 22 21 22 24 21 20 17 12 17 7 26 24 26 20 14 13 11 8 3 4 3 3 3 9 3 4 6 9 5 9 20 7 8 9 9 7 7 8 4
21 21 21 22 23 23 22 23 27 28 24 21 14 8 14 7 16 19 16 17 11 13 11 8 6 5 3 4 3 4 5 6 1 8 6 12 2 5 8 6 9 8 6 7 6
22 21 21 22 23 22 21 24 28 22 10 6 7 4 8 7 6 7 12 22 10 10 7 10 5 6 4 7 16 4 6 6 9 6 8 10 4 4 3 5 6 9 7 6 9
24 22 21 21 22 20 16 6 7 2 4 8 11 14 5 5 4 3 7 16 14 8 13 12 10 17 18 3 2 7 7 7 7 9 7 8 6 9 8 5 7 7 8 7 6
26 26 25 23 23 21 12 4 7 3 13 15 17 26 23 10 16 20 6 9 11 16 14 7 23 12 12 10 9 4 3 5 4 7 8 4 8 9 9 7 7 9 9 10 6
25 25 26 25 22 9 3 7 6 8 5 9 18 12 13 14 18 25 6 12 10 17 24 13 8 14 13 15 14 11 6 5 5 3 3 3 6 5 6 4 5 7 8 8 11
27 27 26 22 13 1 6 4 2 1 6 7 5 0 5 6 10 20 19 12 13 24 20 8 13 23 17 19 17 16 9 5 5 4 4 3 6 4 4 8 9 11 9 8 9
30 27 25 20 5 3 4 2 3 3 4 3 6 9 8 6 5 6 19 16 13 16 15 14 17 25 23 21 16 5 12 8 4 4 4 3 2 8 5 10 17 11 9 10 11
32 28 25 4 2 7 3 3 1 4 7 3 6 6 7 6 13 9 15 13 10 15 13 12 20 18 15 12 14 5 8 4 4 5 1 6 5 6 7 8 13 8 10 13 14
33 30 16 2 3 1 3 2 2 4 6 3 5 12 13 12 6 12 17 16 9 15 20 10 18 10 17 13 10 11 9 2 1 1 6 9 4 12 10 16 14 16 13 10 9
33 25 2 5 2 0 0 3 6 9 11 13 14 18 8 4 5 13 5 13 7 6 18 16 11 20 18 13 10 14 10 7 6 6 5 5 7 8 6 9 11 14 15 6 9
25 4 3 3 3 4 3 2 5 6 8 13 19 3 4 5 3 9 3 12 8 13 9 12 8 10 9 7 11 7 9 8 8 3 5 5 8 6 7 12 16 10 7 8 8
6 4 4 1 5 2 1 6 6 7 13 14 4 2 6 10 5 8 10 17 10 13 3 8 10 17 11 6 14 12 9 6 4 6 3 3 4 3 13 17 15 4 8 9 12
3 5 3 4 1 1 3 6 9 15 12 4 3 1 2 4 5 2 4 13 17 16 4 4 7 9 13 10 7 4 5 6 7 5 6 2 6 0 7 12 15 5 10 18 17
4 4 3 2 3 1 3 8 10 11 3 5 4 5 2 1 1 4 9 3 18 11 7 1 5 5 8 5 9 4 7 7 7 4 3 4 8 3 5 13 8 6 14 15 18
6 4 3 3 7 8 8 9 7 11 9 0 2 1 6 3 4 5 2 2 18 12 8 3 3 5 5 6 2 9 4 7 6 5 7 7 8 4 7 17 13 6 15 16 16
4 6 5 4 3 9 11 6 11 13 12 13 2 5 1 2 5 3 3 6 4 5 9 8 3 5 7 5 6 7 8 9 9 6 7 5 3 6 13 14 12 4 10 18 16
5 3 2 8 10 17 11 5 12 9 6 10 4 12 5 1 2 1 4 4 5 11 5 6 4 3 3 7 5 4 7 14 8 7 8 10 6 2 4 9 9 6 11 16 16
3 4 3 7 10 15 7 8 16 18 5 10 8 11 8 4 4 2 5 5 4 7 5 4 3 2 7 9 8 14 11 8 4 6 8 17 10 4 4 10 8 8 13 13 12
3 3 3 7 8 9 9 15 17 18 6 8 16 6 7 5 5 2 2 2 1 3 4 4 5 4 2 5 2 8 7 3 2 2 10 7 11 15 4 5 6 11 14 13 12
Wind_Direction
327 328 325 323 322 322 324 320 323 322 308 305 304 306 308 313 314 292 257 225 203 240 244 327 172 184 125 232 208 123 138 208 197 151 230 277 13 298 272 220 16 17 332 304 126
317 318 315 312 311 311 314 316 316 314 313 305 304 308 316 322 305 267 241 237 226 232 170 197 249 136 155 187 211 164 187 204 190 185 172 289 48 311 15 333 30 326 44 66 67
321 314 310 304 300 299 302 306 309 308 308 308 313 302 318 319 303 247 80 57 250 222 235 180 152 139 166 153 203 192 214 194 235 206 175 268 299 266 6 26 332 340 54 75 72
339 334 328 322 318 310 298 296 297 301 303 306 308 304 304 282 258 182 53 7 358 162 207 166 136 156 154 192 204 208 199 170 210 204 189 206 244 253 138 152 111 101 85 97 71
334 330 327 322 316 311 304 296 290 285 285 291 301 302 285 222 243 283 316 344 89 156 198 182 134 141 173 169 285 199 210 190 219 252 221 221 265 268 126 141 120 69 82 109 117
333 330 326 323 322 320 317 306 293 278 275 276 284 296 270 253 265 280 303 337 206 170 193 203 187 181 181 207 192 212 190 234 254 253 254 189 252 167 124 129 111 102 92 120 142
334 326 323 323 321 317 312 307 306 299 282 270 274 276 246 247 267 266 252 194 70 358 206 213 209 187 170 160 204 238 42 291 234 237 249 159 248 213 193 123 112 125 128 158 161
327 322 321 320 317 315 311 307 299 295 286 278 273 276 269 224 246 249 251 265 275 280 259 280 195 237 201 289 36 175 146 226 257 194 246 156 252 222 225 141 143 126 143 144 210
324 319 321 318 316 314 311 305 299 289 280 274 266 240 268 250 233 246 235 231 233 235 233 245 153 191 212 129 6 210 157 173 219 193 177 198 202 198 215 206 151 157 180 161 187
324 321 317 314 315 313 308 310 292 290 281 210 221 200 247 234 230 237 202 213 208 188 207 200 183 167 188 165 207 166 141 151 178 190 187 232 225 262 225 188 196 165 181 217 170
325 321 316 313 309 306 314 336 352 358 235 203 183 231 296 219 257 286 148 170 205 206 182 178 187 203 197 131 263 167 149 176 184 209 173 221 194 216 222 217 236 190 175 199 195
322 318 315 310 304 304 301 223 218 53 285 231 245 231 239 281 292 270 183 162 195 193 152 167 214 187 180 191 204 222 167 178 189 202 166 206 238 224 222 231 196 234 179 186 166
317 313 311 308 309 317 200 218 279 357 292 272 227 239 248 216 238 260 238 199 198 188 188 186 155 178 179 176 203 222 154 161 142 159 80 130 285 206 257 232 262 232 234 188 182
315 315 313 315 298 153 273 247 339 156 276 271 194 294 87 343 256 247 222 214 201 196 182 227 169 182 190 195 184 205 158 178 152 107 191 115 267 270 220 264 226 241 238 221 199
321 322 323 323 287 237 241 270 288 139 280 210 167 149 179 216 357 263 180 214 237 167 168 192 181 185 192 194 181 189 149 184 167 147 121 46 6 271 247 259 265 253 234 229 206
325 325 326 327 185 252 275 312 103 270 255 235 149 228 231 230 269 279 166 203 213 175 189 190 180 182 191 176 177 167 119 65 65 95 319 189 172 223 220 229 261 262 239 226 224
327 323 322 196 233 207 116 82 317 218 322 242 335 339 331 291 160 181 155 192 177 161 178 196 181 159 170 169 162 160 134 127 249 87 214 184 193 254 265 263 240 263 256 221 195
326 319 255 227 236 319 115 50 245 268 280 307 330 331 298 312 109 155 149 189 209 133 159 173 185 180 175 183 176 186 154 148 142 165 198 162 237 251 237 274 278 252 259 197 158
325 325 325 257 232 133 102 189 248 313 323 336 318 319 360 11 71 132 211 196 164 160 152 172 203 146 171 138 148 174 183 170 106 321 102 215 282 331 13 341 344 264 183 132 133
321 338 289 91 116 116 95 252 245 235 285 295 280 330 358 350 54 133 197 188 190 197 167 159 174 174 175 151 188 171 166 160 19 132 188 288 292 261 345 335 340 348 111 108 121
12 3 268 116 121 256 277 265 278 277 276 290 314 349 330 2 9 91 253 149 205 210 170 124 130 170 163 196 153 117 123 63 117 136 161 118 269 140 290 325 331 161 144 125 118
335 346 295 40 1 291 281 287 290 290 314 272 274 220 228 116 287 229 224 212 181 192 169 355 117 125 177 154 171 141 155 138 130 206 94 138 271 226 274 12 26 142 121 124 121
337 287 314 59 357 345 312 299 293 311 305 223 270 289 198 169 186 258 300 3 173 176 149 177 35 86 77 56 119 178 182 132 110 94 174 133 261 301 31 29 9 129 126 112 111
8 342 323 14 329 329 322 319 329 316 311 348 346 171 16 235 206 339 262 58 57 139 157 91 88 123 164 172 151 178 163 158 134 129 159 207 213 331 48 34 8 46 126 114 112
22 341 15 314 340 335 331 296 323 339 337 346 14 22 360 68 114 346 3 19 45 129 78 106 94 84 16 38 108 106 172 171 168 186 153 188 130 326 31 59 353 277 113 107 110
24 338 332 286 298 333 343 332 339 334 305 334 336 340 29 57 28 14 323 35 48 323 83 20 113 143 30 12 104 80 44 91 119 134 79 114 96 190 31 57 311 155 113 104 103
302 270 279 293 323 342 334 334 335 339 310 318 337 325 21 353 328 295 278 100 123 28 92 69 105 64 334 327 352 37 1 0 116 89 138 166 155 138 170 185 141 101 102 107 102